KC7FQC Weather Reports


Display with metric or nautical units.
time (UTC)temp
F
wind
direction
speed
MPH
gust
MPH
rain 1hr
in
rain 24hr
in
rain mn
in
humidity
%
barometer
mb
20171021223117 85 237 5.0 8.0 0.00 0.00 0.00 23 1014.2
20171021220117 84 244 1.0 8.0 0.00 0.00 0.00 24 1014.0
20171021213117 83 205 5.0 9.0 0.00 0.00 0.00 26 1014.1
20171021210117 83 192 5.0 10.0 0.00 0.00 0.00 27 1014.3
20171021203117 81 175 1.0 8.0 0.00 0.00 0.00 29 1014.6
20171021200117 82 235 2.0 9.0 0.00 0.00 0.00 29 1014.7
20171021193117 80 211 2.0 6.0 0.00 0.00 0.00 30 1015.4
20171021190047 79 225 2.0 9.0 0.00 0.00 0.00 32 1015.8
20171021183117 77 203 5.0 8.0 0.00 0.00 0.00 34 1015.8
20171021180117 76 191 4.0 6.0 0.00 0.00 0.00 36 1015.7
20171021173116 74 183 2.0 7.0 0.00 0.00 0.00 38 1015.6
20171021170046 73 151 0.0 6.0 0.00 0.00 0.00 39 1015.4
20171021163116 70 138 1.0 4.0 0.00 0.00 0.00 42 1015.3
20171021160116 68 139 0.0 4.0 0.00 0.00 0.00 47 1015.0
20171021153116 65 141 0.0 4.0 0.00 0.00 0.00 54 1014.6
20171021150116 61 129 0.0 2.0 0.00 0.00 0.00 60 1013.7
20171021143116 60 164 0.0 2.0 0.00 0.00 0.00 63 1012.9
20171021140116 59 164 0.0 1.0 0.00 0.00 0.00 62 1012.2
20171021133046 60 219 0.0 2.0 0.00 0.00 0.00 60 1012.2
20171021130116 60 219 0.0 0.0 0.00 0.00 0.00 59 1011.8
20171021123116 61 219 0.0 4.0 0.00 0.00 0.00 57 1011.6
20171021120116 61 219 0.0 1.0 0.00 0.00 0.00 55 1011.0
20171021113116 62 219 0.0 2.0 0.00 0.00 0.00 54 1010.9
20171021110046 63 219 1.0 4.0 0.00 0.00 0.00 53 1010.4
20171021103116 63 219 2.0 5.0 0.00 0.00 0.00 51 1010.1
20171021100116 64 219 0.0 2.0 0.00 0.00 0.00 50 1010.0
20171021093116 65 219 0.0 10.0 0.00 0.00 0.00 48 1009.5
20171021090116 66 211 1.0 10.0 0.00 0.00 0.00 46 1009.1
20171021083116 67 213 5.0 13.0 0.00 0.00 0.00 43 1009.1
20171021080046 68 219 7.0 10.0 0.00 0.00 0.00 40 1009.1
20171021073116 69 236 4.0 9.0 0.00 0.00 0.00 37 1008.8
20171021070046 70 222 2.0 10.0 0.00 0.00 0.00 36 1009.0
20171021063046 70 194 5.0 8.0 0.00 0.00 0.00 37 1009.0
20171021060046 70 204 2.0 6.0 0.00 0.00 0.00 39 1009.0
20171021053116 71 219 0.0 5.0 0.00 0.00 0.00 37 1009.0
20171021050116 72 219 2.0 6.0 0.00 0.00 0.00 37 1008.4
20171021043116 72 225 5.0 8.0 0.00 0.00 0.00 37 1008.0
20171021040116 73 219 2.0 4.0 0.00 0.00 0.00 37 1008.0
20171021033116 74 220 0.0 9.0 0.00 0.00 0.00 36 1007.3
20171021030115 75 213 5.0 8.0 0.00 0.00 0.00 36 1007.0
20171021023115 76 206 2.0 12.0 0.00 0.00 0.00 35 1006.5
20171021020115 77 225 5.0 14.0 0.00 0.00 0.00 34 1006.4
20171021013115 78 225 9.0 15.0 0.00 0.00 0.00 33 1006.2
20171021010115 79 226 7.0 18.0 0.00 0.00 0.00 31 1005.5
20171021003115 80 242 9.0 19.0 0.00 0.00 0.00 29 1005.1
20171021000115 82 223 7.0 18.0 0.00 0.00 0.00 30 1005.3
20171020233115 83 229 8.0 16.0 0.00 0.00 0.00 30 1005.5
20171020230115 83 247 8.0 20.0 0.00 0.00 0.00 30 1005.9